Погода в Липецке

Погода в Липецке : погода сейчас, прогноз погоды и архив. Всё, что Вы хотите узнать о погоде в Липецке!

Хотите узнать прогноз погоды в Липецке? Тогда Вам сюда: Погода в Липецке

Поиск расширенной информации на нашем сайте:

Другие новости

Новости СМИ2

Главная страница сайта

Новости сайта

02.10.2013

Напоминаем, что на нашем новом сайте вы можете получить высокодетализированные прогнозы погоды по пунктам России, СНГ и мира (включающие важные для авиации метеовеличины, такие как направление и скорость ветра, видимость, явления погоды, количество и форма облачности, нижняя и верхняя граница облачности), а также ознакомиться с разнообразными материалами по авиационной метеорологии и подборкой полезных ссылок на эту тему.

Сайт Метеоцентр.Азия посвящён разработке технологий оптимизации авиаметеорологического обслуживания, включая проектирование и перспективное создание нескольких автоматизированных авиаметеорологических систем:
- система выпуска высокодетальных прогностических карт явлений погоды для нижнего воздушного пространства по России и ближнему зарубежью;
- система верификации прогнозов TAF (выпускаемых синоптиками официальных АМСГ РФ и ближнего зарубежья) и AUTOTAF (выпускаемых сайтом Метеоцентр.Азия) - выявление ошибок, онлайн-сопоставление с фактической погодой METAR, автоматическое внесение коррективов в прогнозы при резком отклонении фактической погоды от прогноза, подсчёт оправдываемости прогнозов по элементам и в целом;
- система обработки, анализа и отображения авиаметеорологической информации для применения провайдерами метеорологической информации.

Рекомендуем: вся мебель здесь.

Погода в Липецке - сегодня

Время (UTC), дата Ветер
(°,м/с) 
Видим.   Явления Облачность Т
(°С)
Тd
(°С)
f(%) Тe
(°С)
Pmin
(гПа)
dP
(гПа)
Po
(мм)
O2
(г/м3)
Тmin Tmax R s Состояние
почвы
06 17.02.17 190 (Ю) 10 км    8/0 средняя 
[Ac trans]
-12.5 -14.5 85 -19  1025.3  -1.9  751  319           
09 17.02.17 200 (Ю) 7{10}  10 км  позёмок  9/0 средняя 
[Ac und]
-7.6 -11.1 76 -13  1022.8  -2.1  750  312           
12 17.02.17 190 (Ю) 8{11}  6000 м  слаб. снег  10/6 330 м средняя 
[Frnb|As op]
-6 -8.7 81 -12  1020  -2.6  748  309           
15 17.02.17 200 (Ю) 9-10{11}  10 км  позёмок{снег}  9/0 средняя 
[Ac und]
-5.7 -7.5 87 -12  1018  -1.9  746  308    -5.7  0.0     
18 17.02.17 210 (ЮЗ) 8{10}  10 км  позёмок{снег}  8/0 средняя 
[Ac und]
-6.3 -8.2 86 -12  1016.8  -1.3  746  308           
21 17.02.17 210 (ЮЗ) 8{10}  10 км  в посл. час снег  10/10 570 м 
[Sc]
-5.2 -6.6 90 -11  1015.5  -1.2  745  307           
00 18.02.17 240 (ЮЗ) 8{10}  10 км  {снег}  10/10 660 м 
[Sc]
-3.1 -4.8 88 -8  1014.5  -0.7  744  304           
03 18.02.17 240 (ЮЗ) 8{10}  2200 м  слаб. снег  10/10 210 м 
[Frnb|Ns]
-2.1 -3 94 -7  1013.5  -0.9  743  302  -6.3    0.0  88  неравномерный
сухой снег
100% 
06 18.02.17 260 (З) 8{10}  3800 м  позёмок{снег}  10/10 210 м 
[St]
-1.1 -1.5 97 -6  1013.4  743  301           
09 18.02.17 250 (З) 6{10}  5000 м    10/10 210 м 
[St]
+1 -0.1 92 -2  1013.5  0.3  744  299           
12 18.02.17 250 (З) 6{11}  6000 м  дымка  10/10 300 м 
[St]
+1.3 -0.4 88 -2  1013.2  -0.3  743  298           
15 18.02.17 250 (З) 6{11}  6000 м  дымка  10/10 400 м 
[St]
+1.6 -0.6 85 -2  1013.6  0.4  744  298    +1.6  0.2     
18 18.02.17 250 (З) 6{10}  5000 м  дымка  10/10 300 м 
[St]
+1.3 -0.1 90 -2  1013.9  0.3  744  298           
21 18.02.17 250 (З) 6{10}  5000 м  дымка  10/10 360 м 
[St]
+0.9 -0.2 92 -2  1014.4  0.5  744  299           
00 19.02.17 260 (З) 7-10{10}  6000 м  дымка  10/10 330 м 
[St]
+1.2 +0.1 92 -2  1015.1  0.6  745  299           
03 19.02.17 270 (З) 7-10{13}  10 км    10/10 840 м 
[Sc]
+1.4 -2.1 77 -2  1016.3  1.2  746  299  +0.7      83  равномерный
мокрый или
старый снег
100% 
06 19.02.17 270 (З) 6{12}  10 км    5/3 600 м средняя 
[Sc|Ac trans]
+0.6 -3.4 75 -3  1017.7  1.3  747  301  +0.5         
09 19.02.17 260 (З) 10 км    6/3 1000 м средняя 
[Sc|Ac trans]
+1.4 -3.4 70 -2  1018.7  1.1  747  300           
12 19.02.17 260 (З) 8-11{12}  10 км    9/8 700 м средняя 
[Sc|Ac trans]
+0.7 -3.9 71 -3  1018.3  -0.5  747  301           
15 19.02.17 240 (ЮЗ) 7{13}  10 км    8/0 средняя 
[Ac trans]
-0.3 -3.7 78 -4  1017.7  -0.7  747  302    +1.6       
18 19.02.17 230 (ЮЗ) 8{12}  10 км    8/6 800 м средняя 
[Sc|Ac trans]
-0.6 -2.7 86 -5  1016.8  -0.9  746  301           
21 19.02.17 240 (ЮЗ) 9-13{14}  10 км    10/10 660 м 
[Sc]
+0.6 -1.4 86 -4  1015.5  -1.2  745  300           
00 20.02.17 260 (З) 11-17{17}  10 км    10/10 600 м 
[Sc]
+0.9 -1.7 83 -4  1014.5  -0.9  744  299           
03 20.02.17 250 (З) 10-15{18}  10 км    10/10 600 м 
[Sc]
+0.9 -1.7 83 -4  1013.7  -0.8  744  299  -0.9      82  равномерный
мокрый или
старый снег
100% 
06 20.02.17 260 (З) 9-13{17}  10 км    10/10 500 м 
[Sc]
+0.6 -2.3 81 -4  1013.5  -0.2  744  299           
Время (UTC), дата Ветер
(°,м/с) 
Видим.   Явления Облачность Т
(°С)
Тd
(°С)
f(%) Тe
(°С)
Pmin
(гПа)
dP
(гПа)
Po
(мм)
O2
(г/м3)
Тmin Tmax R s Состояние
почвы

Для получения пояснительной информации подведите курсор к названию столбца.

ПОГОДА в Липецке - архив

Всё, что Вы хотите узнать о погоде в Липецке - удобно и подробно!

Выберите нужную дату (начиная с 1 января 2015* года) и нажмите кнопку "Найти".
Будут отображены архивные сводки погоды по пункту Липецк, начиная с указанной даты.


Отображать данные в формате CSV (для использования в таблицах Excel)


Внимание! Наш архив погоды предназначен исключительно для личного некоммерческого использования в познавательных целях. Если Вам необходимы официальные справки о состоянии погоды (для производственных, юридических, коммерческих и т.п. целей), обращайтесь в органы Росгидромета.

*Примечание: данная дата относится к архиву по метеостанциям СССР (Россия, СНГ, Балтия).
Архив по метеостанциям Зарубежной Европы и Азии (кроме Китая) хранится 10 дней, по другим регионам земного шара (Китай, Африка, Америка, Австралия, Океания) - 1 день.

Липецк - район местоположения метеостанции


Название, широта, долгота, высота метеостанции:
Липецк 52.7°ш. 39.5°д. 177 м над ур. моря [Российская Федерация]

Дополнительная информация

В oтличие oт бoльшинства пoгoдных сайтoв мы публикуем пoдрoбную метеoинфoрмацию в детальнoм прoфессиoнальнoм фoрмате.

Характеристики температуры и влажнoсти вoздуха измеряются на высoте 2 м в тени вдали oт зданий и деревьев.
Скoрoсть ветра измеряется на высoте 10 м (на урoвне рoста челoвека скoрoсть ветра ниже в 1.5-2 раза). Если метеoстанция нахoдится в гoрoде или в лесу, тo скoрoсть ветра занижена на 2-4 м/с пo сравнению с oткрытым местoм. Скoрoсть ветра над акватoриями крупных рек и oзёр, а также на вершинах хoлмoв на 2-5 м/с выше, чем в oбычных услoвиях.
Атмoсфернoе давление в разных тoчках местнoсти мoжет значительнo oтличаться oт давления на метеoстанции, в зависимoсти oт услoвий рельефа (при пoдъёме на 10 м давление пoнижается примернo на 1 мм рт.ст.).